Regional Weather Roundup
Issued by NWS

Home | Current Version | Previous Version | Text Only | Print | Product List | Glossary On
Versions: 1 2 3 4 5 6 7 8 9 10 11 12 13 14 15 16 17 18 19 20 21 22 23 24 25 26 27 28 29 30 31 32 33 34 35 36 37 38 39 40 41 42 43 44 45 46 47 48
000
ASUS42 KTBW 281916
RWRFL
FLORIDA REGIONAL WEATHER ROUNDUP
NATIONAL WEATHER SERVICE TAMPA BAY RUSKIN FL
300 PM EDT FRI AUG 28 2015

NOTE: "FAIR" INDICATES FEW OR NO CLOUDS BELOW 12,000 FEET WITH NO
SIGNIFICANT WEATHER AND/OR OBSTRUCTIONS TO VISIBILITY.


FLZ001>010-012>015-112-114-115-282000-
PANHANDLE FLORIDA

CITY           SKY/WX    TMP DP  RH WIND       PRES   REMARKS
PENSACOLA      MOSUNNY   88  69  53 S8        29.99F
PENSACOLA NAS  MOSUNNY   86  71  60 S8        29.99F
MILTON NAS     PTSUNNY   93  67  42 VRB3      29.99  HX  96
CRESTVIEW      PTSUNNY   91  67  44 NE6       30.00F
DUKE FIELD     MOSUNNY   93  59  32 S7        29.97F
VALPARAISO     MOSUNNY   90  65  43 S8        29.99F
MARY ESTHER    SUNNY     89  65  45 S8        29.98F
TRI COUNTY     FAIR      88  71  57 NE9G18    29.98F THUNDER
PANAMA CITY    FAIR      88  74  63 E7        29.98F HX  96
TYNDALL AFB    PTSUNNY   88  75  65 SE17      29.98F HX  98
APALACHICOLA   CLOUDY    84  75  74 E13       29.99F

STATION/POSITION SKY/WX   TEMP    WIND        PRES    WAVE   SWELL
                          AIR SEA DIR/SP/G            HT/PER HT/PER
                          (F)     (DEG/KT/KT) (MB)    (FT/S) (FT/S)
30.1N   87.6W              83 87  250/  2/  4 1015.7F   1
29.2N   88.2W              82 87  180/  6/  8 1016.0F   1
28.8N   86.0W              85 88   CALM  /  2 1015.8S   1/ 4
PANAMA CITY BEAC NOT AVBL
CAPE SAN BLAS    NOT AVBL
TOWER C                    84     110/ 13/ 13 1015.6F
28.5N   84.5W              86 87   90/ 10/ 12 1015.9F   1/ 4

$$
FLZ011-016>038-118-127-128-134-139-239-282000-
NORTH FLORIDA

CITY           SKY/WX    TMP DP  RH WIND       PRES   REMARKS
MARIANNA       PTSUNNY   87  76  69 E6        29.99F HX  97
TALLAHASSEE    CLOUDY    82  76  81 SE7       30.03F
PERRY          CLOUDY    88  67  50 SE6       30.03F
CROSS CITY       N/A     86  73  65 SE3       30.02F
LAKE CITY      FAIR      88  70  55 CALM      30.03F
GAINESVILLE    PTSUNNY   89  72  56 E8        30.02F HX  96
MAYPORT NAS    PTSUNNY   88  75  65 E10       30.04F HX  97
JACKSONVILLE   PTSUNNY   86  74  67 E13       30.03F
JAX NAS        PTSUNNY   92  71  50 E10       30.03F HX  98
JAX CRAIG      MOSUNNY   88  73  61 SE9       30.04F HX  95
JAX CECIL      MOSUNNY   88  73  62 SE7       30.03F HX  96
FERNANDINA BEA FAIR      88  73  62 E10       30.04F HX  96

STATION/POSITION SKY/WX   TEMP    WIND        PRES    WAVE   SWELL
                          AIR SEA DIR/SP/G            HT/PER HT/PER
                          (F)     (DEG/KT/KT) (MB)    (FT/S) (FT/S)
SHELL POINT                76      80/  1/  5   N/A
KEATON BEACH               84     160/  1/  2 1016.7F
CEDAR KEY                  87     280/  3/  4 1017.0F
FERNANDINA       NOT AVBL
30.7N   81.3W                 87                N/A     2/ 9   2/12
MAYPORT          NOT AVBL
31.4N   80.9W              82 86   60/ 12/ 14 1018.7F   3/ 8   2/ 8
ST AUGUSTINE               82 87   80/  6/  7 1018.1F

$$
FLZ040-043>046-052-053-057-058-063-144-282000-
INTERIOR CENTRAL FLORIDA

CITY           SKY/WX    TMP DP  RH WIND       PRES   REMARKS
OCALA          MOSUNNY   90  70  51 CALM      30.03F HX  95
THE VILLAGES     N/A     91  72  52 VRB3      29.92F HX  98
LEESBURG       PTSUNNY   91  71  51 SE9       30.03F HX  97
SANFORD        PTSUNNY   91  71  51 E9        30.02S HX  97
ORLANDO EXEC   PTSUNNY   91  75  59 E8        30.01F HX 101
ORLANDO INTL   PTSUNNY   90  72  55 VRB3      30.00F HX  97
KISSIMMEE      MOSUNNY   90  73  58 SE5       30.01F HX  98
WINTER HAVEN   FAIR      91  72  53 N6        30.01F HX  98
LAKELAND       PTSUNNY   88  72  58 NE6       30.00F
BARTOW         PTSUNNY   88  72  58 E8        30.00F
OKEECHOBEE     PTSUNNY   88  73  62 E9G16     29.99F THUNDER HX  96

$$
FLZ041-047-054-059-064-141-147-282000-
EAST CENTRAL FLORIDA

CITY           SKY/WX    TMP DP  RH WIND       PRES   REMARKS
ORMOND BEACH   MOSUNNY   86  75  70 E8        30.08  HX  95
DAYTONA BEACH  PTSUNNY   86  75  69 E12       30.04F HX  95
DELAND           N/A     90  73  58 E6        30.03F HX  98
NEW SMYRNA BEA MOSUNNY   86  73  66 E9        30.05F
TITUSVILLE     PTSUNNY   88  72  58 SE14      30.03F
CAPE CANAVERAL MOSUNNY   91  75  60 E9        30.01F HX 101
PATRICK AFB    MOSUNNY   85  76  72 E14       30.01F HX  95
MELBOURNE      MOSUNNY   85  74  69 E14       30.02S
VERO BEACH     RAIN      85  74  69 E10       30.01F
FT PIERCE      PTSUNNY   84  77  79 E9        30.01F
STUART         LGT RAIN  81  75  83 VRB5      30.04S

STATION/POSITION SKY/WX   TEMP    WIND        PRES    WAVE   SWELL
                          AIR SEA DIR/SP/G            HT/PER HT/PER
                          (F)     (DEG/KT/KT) (MB)    (FT/S) (FT/S)
28.5N   80.2W              82 85   80/ 10/ 12 1017.7F
28.9N   78.5W              83 86  130/  6/  8 1018.3F
TRIDENT PIER     NOT AVBL
28.4N   80.5W                 87                N/A     2/13
27.5N   80.2W                 86                N/A     2/ 8

$$
FLZ050-056-061-142-242-148-248-149-249-151-251-155-255-
160-260-282000-
WEST CENTRAL FLORIDA

CITY           SKY/WX    TMP DP  RH WIND       PRES   REMARKS
CRYSTAL RIVER  FAIR      88  72  58 E6        30.02S
INVERNESS      FAIR      88  73  62 CALM      30.02F HX  96
BROOKSVILLE    CLOUDY    90  73  57 CALM      30.02F HX  98
CLEARWATER     CLOUDY    86  74  67 CALM      30.01F
TAMPA INTL     CLOUDY    87  73  62 SW5       30.01F
TAMPA EXEC     CLOUDY    90  73  58 CALM      30.02R HX  98
PLANT CITY     CLOUDY    88  75  66 N5        30.02F HX  97
MACDILL AFB    CLOUDY    88  78  72 NW2       30.01S HX 102
PETER O KNIGHT CLOUDY    88  77  70 CALM      30.01S HX 100
ST PETERSBURG  LGT RAIN  84  77  79 W5        29.99F
SARASOTA       CLOUDY    84  74  71 SE8       29.99F
VENICE         FAIR      81  72  74 NE13      30.01F

STATION/POSITION SKY/WX   TEMP    WIND        PRES    WAVE   SWELL
                          AIR SEA DIR/SP/G            HT/PER HT/PER
                          (F)     (DEG/KT/KT) (MB)    (FT/S) (FT/S)
CEDAR KEY                  87     280/  3/  4 1017.0F
28.5N   84.5W              86 87   90/ 10/ 12 1015.9F   1/ 4
27.3N   84.2W                 87                N/A     2/ 4
CLEARWATER BEACH NOT AVBL
MIDDLE TAMPA BAY NOT AVBL
VENICE                     78 88   50/  8/  9 1015.4F

$$
FLZ066-069-070-075>078-162-262-165-265-282000-
SOUTHWEST FLORIDA AND KEYS

CITY           SKY/WX    TMP DP  RH WIND       PRES   REMARKS
PUNTA GORDA    LGT RAIN  82  76  81 W6        30.01S
FT MYERS       CLOUDY    89  71  55 W10       29.97F HX  95
SOUTHWEST INTL MOSUNNY   92  70  48 SE6       29.97F HX  97
NAPLES         SUNNY     92  76  59 SW14      29.96F HX 104
MARATHON       MOSUNNY   92  78  63 VRB5      29.97F HX 107
KEY WEST NAS   MOSUNNY   92  70  48 VRB7      29.97F HX  97
KEY WEST INTL  SUNNY     90  73  57 E7        29.97F HX  98

STATION/POSITION SKY/WX   TEMP    WIND        PRES    WAVE   SWELL
                          AIR SEA DIR/SP/G            HT/PER HT/PER
                          (F)     (DEG/KT/KT) (MB)    (FT/S) (FT/S)
VENICE                     78 88   50/  8/  9 1015.4F
NAPLES           NOT AVBL
26.0N   85.6W              85 88  340/  4/  6 1015.5F   1/ 4
DRY TORTUGAS               87     190/  8/  8 1015.2F
NW FL BAY                  86     130/  6/  8 1015.6
SAND KEY                   86     100/  5     1014.8F
LONG KEY                   85 88  120/  7/  9 1015.5F
MOLASSES REEF              84 89  110/ 10/ 11 1014.9F

$$
FLZ067-068-071>074-168-172>174-282000-
SOUTHEAST FLORIDA

CITY           SKY/WX    TMP DP  RH WIND       PRES   REMARKS
W PALM BEACH   PTSUNNY   78  71  79 CALM      30.03S THUNDER
FT LAUDER-EXEC PTSUNNY   93  73  52 E10       29.98F HX 102
FT LAUDERDALE  PTSUNNY   89  75  63 E12       29.97F HX  99
POMPANO BEACH  MOSUNNY   89  75  63 SE12      29.99F HX  99
PEMBROKE PINES MOSUNNY   92  72  51 S8        29.98F HX  99
OPA LOCKA      SUNNY     92  72  51 E7        29.98F HX  99
MIAMI          MOSUNNY   90  75  61 SE9       29.98F HX 100
WEST KENDALL   SUNNY     90  75  61 E9        29.98F HX 100
HOMESTEAD      SUNNY     89  72  57 E10       29.98F HX  95

STATION/POSITION SKY/WX   TEMP    WIND        PRES    WAVE   SWELL
                          AIR SEA DIR/SP/G            HT/PER HT/PER
                          (F)     (DEG/KT/KT) (MB)    (FT/S) (FT/S)
PORT EVERGLADES            86     130/  7/ 10 1015.5F
SETTLEMENT POINT           78     110/ 11/ 14 1017.6F

$$




USA.gov is the U.S. government's official web portal to all federal, state and local government web resources and services.